Regional Weather Roundup
Issued by NWS

Home | Current Version | Previous Version | Graphics & Text | Print | Product List | Glossary On
Versions: 1 2 3 4 5 6 7 8 9 10 11 12 13 14 15 16 17 18 19 20 21 22 23 24 25 26 27 28 29 30 31 32 33 34 35 36 37 38 39 40 41 42 43 44 45 46 47 48 49 50
000
ASUS43 KMKX 260711
RWRWI

WISCONSIN REGIONAL WEATHER ROUNDUP
NATIONAL WEATHER SERVICE MILWAUKEE/SULLIVAN WI
200 AM CDT SAT JUL 26 2014

NOTE: "FAIR" INDICATES FEW OR NO CLOUDS BELOW 12,000 FEET WITH NO
SIGNIFICANT WEATHER AND/OR OBSTRUCTIONS TO VISIBILITY.

WIZ001-002-006>008-014>016-023>028-260800-
NORTHWEST WISCONSIN

CITY           SKY/WX    TMP DP  RH WIND       PRES   REMARKS
SUPERIOR ARPT  CLOUDY    68  66  94 SW5       29.76F
ASHLAND        CLOUDY    69  65  86 SW7       29.77F
HAYWARD        CLOUDY    69  67  93 S5        29.80F
SIREN          CLOUDY    70  67  90 SW6       29.80S
RICE LAKE      CLOUDY    69  66  88 S7        29.83S
LADYSMITH      CLOUDY    67  65  90 S3        29.84F
EAU CLAIRE     CLOUDY    69  67  93 S7        29.82S
MENOMONIE      CLOUDY    70  67  91 S8        29.83S
NEW RICHMOND   CLOUDY    71  70  97 S7        29.82S
OSCEOLA        CLOUDY    71  71 100 S3        29.83S
$$

WIZ003>005-009-010-017-018-260800-
NORTH CENTRAL WISCONSIN

CITY           SKY/WX    TMP DP  RH WIND       PRES   REMARKS
WOODRUFF       CLOUDY    65  62  90 SW7       29.84F
RHINELANDER    CLOUDY    64  62  93 SW12      29.86S
EAGLE RIVER    CLOUDY    64  63  94 SW6       29.84S
LAND O LAKES   CLOUDY    65  63  91 SW5       29.84S
PHILLIPS       CLOUDY    64  64  97 S6        29.82F
TOMAHAWK       DRIZZLE   63  61  94 CALM      29.85F
MEDFORD        CLOUDY    64  62  94 SW6       29.85S
MERRILL        CLOUDY    65  63  92 SW6       29.85F
$$

WIZ029-030-035-036-043>047-260800-
CENTRAL WISCONSIN

CITY           SKY/WX    TMP DP  RH WIND       PRES   REMARKS
WAUSAU         CLOUDY    65  62  90 SW7       29.84F
MOSINEE        CLOUDY    63  63 100 S10       29.87F
MARSHFIELD     CLOUDY    64  62  93 S7        29.84F
STEVENS POINT  PTCLDY    62  60  93 SW6       29.87S
WAUPACA        PTCLDY    66  62  89 CALM      29.87F
WAUTOMA        PTCLDY    64  62  93 CALM      29.87F
WISC RAPIDS    MOCLDY    64  62  93 SW7       29.87F
CAMP DOUGLAS   MOCLDY    67  66  96 SW5       29.86F
$$

WIZ011>013-019>022-031-037>040-048>050-260800-
NORTHEAST WISCONSIN

CITY           SKY/WX    TMP DP  RH WIND       PRES   REMARKS
ANTIGO         CLOUDY    63  61  94 SW9       29.86F
STURGEON BAY   PTCLDY    64  59  82 S6        29.85S
GREEN BAY      MOCLDY    66  62  87 SW5       29.85F
MANITOWOC      CLEAR     66  61  84 W7        29.86S
APPLETON       CLOUDY    64  59  82 SW12      29.86F
CLINTONVILLE   MOCLDY    64  61  88 SW8       29.85F
OSHKOSH        MOCLDY    65  62  90 SW7       29.87S
$$

WIZ032>034-041-042-053>061-260800-
SOUTHWEST WISCONSIN

CITY           SKY/WX    TMP DP  RH WIND       PRES   REMARKS
LA CROSSE      CLOUDY    68  66  93 S10       29.84F
SPARTA         CLOUDY    65  64  93 CALM      29.87F FOG
VIROQUA        CLOUDY    65  65 100 S3        29.88F
BOSCOBEL       CLOUDY    67  63  87 CALM      29.88S
PRAIRIE DU CHI CLOUDY    67  63  87 E3        29.86S
PLATTEVILLE    CLOUDY    65  62  90 SE5       29.89S
$$

WIZ056-057-062-063-064-067-068-260800-
SOUTH CENTRAL WISCONSIN

CITY           SKY/WX    TMP DP  RH WIND       PRES   REMARKS
BARABOO/DELLS  CLOUDY    65  60  85 SW5       29.89S
LONE ROCK      LGT RAIN  70  63  78 CALM      29.89S
WATERTOWN      CLEAR     60  60  97 CALM      29.89S
MADISON        MOCLDY    66  60  81 VRB5      29.88F
MIDDLETON      CLOUDY    66  61  82 SW3       29.89S
MONROE         CLOUDY    64  61  88 S8        29.88F
JANESVILLE     CLOUDY    68  59  73 S6        29.88F
$$

WIZ051-052-058>065-066-070>072-260800-
SOUTHEAST WISCONSIN

CITY           SKY/WX    TMP DP  RH WIND       PRES   REMARKS
MILWAUKEE      PTCLDY    64  59  83 SW5       29.89F
WAUKESHA       CLEAR     61  57  88 SW5       29.90F
MILWAUKEE/TIMM CLEAR     63  57  82 S5        29.89F
RACINE         CLEAR     63  59  87 SW3       29.90F
BURLINGTON     CLEAR     59  58  96 CALM      29.89F
KENOSHA        CLEAR     63  59  87 SW3       29.89F
FOND DU LAC    PTCLDY    64  60  87 SW7       29.88F
SHEBOYGAN      CLEAR     63  60  90 SW9       29.87F
WEST BEND      PTCLDY    61  57  88 SW3       29.88F
JUNEAU         PTCLDY    61  58  91 S3        29.90F
$$

LSZ147-162-260800-
LAKE SUPERIOR

STATION/POSITION TIME  TEMP    WIND        PRES    WAVE
                       AIR SEA DIR/SP/G            HT/PER
                 (UTC) (F)     (DEG/KT/KT) (MB)    (FT/S)
W MID LAKE BUOY  0650   55 48  170/  6/  6 1007.5F   0
PORT WING        0640   66     250/  5/  7 1008.1R
SAXON HARBOR     0600          200/  7/ 13 1008.1
$$

LMZ867-665-643>646-260800-
LAKE MICHIGAN

STATION/POSITION TIME  TEMP    WIND        PRES    WAVE
                       AIR SEA DIR/SP/G            HT/PER
                 (UTC) (F)     (DEG/KT/KT) (MB)    (FT/S)
N MID LAKE BUOY  0650   60 56  220/ 10/ 12 1009.7F   2/ 5
NORTHPORT PIER   0600   62     180/  1/  5 1010.5S
KEWAUNEE LAKESHO 0600   58     240/  2/  3 1012.0R
SHEBOYGAN LAKESH 0700   66     220/  7/  8 1011.3F
PORT WASHINGTON  0600   61     240/  3/  4 1012.5S
ATWATER BUOY     0700   63     170/  6     1012.7F
MILWAUKEE LAKESH 0600   67     230/  8/  9   N/A
S MID LAKE BUOY  0650   63 61  180/  8/ 10 1012.4F   1
KENOSHA   LAKESH 0700   67     220/  6/  8 1011.9F
$$

TC  - TEMPERATURE IN CELSIUS
VSB - VISIBILITY IN STATUTE MILES
WCI - WIND CHILL INDEX
HX  - HEAT INDEX




USA.gov is the U.S. government's official web portal to all federal, state and local government web resources and services.